Time,TemperatureF,DewpointF,PressureIn,WindDirection,WindDirectionDegrees,WindSpeedMPH,WindSpeedGustMPH,Humidity,HourlyPrecipIn,Conditions,Clouds,dailyrainin,SoftwareType,DateUTC
2013-04-07 00:08:00,60.8,59.0,30.17,SW,222,0.0,-999.0,94,-99.99,,,0.00,weatherlink.com 1.10,2013-04-07 04:08:00,
2013-04-07 00:23:00,60.7,59.0,30.16,SW,222,0.0,-999.0,94,-99.99,,,0.00,weatherlink.com 1.10,2013-04-07 04:23:00,
2013-04-07 00:37:00,60.6,59.0,30.16,SW,222,0.0,-999.0,94,-99.99,,,0.00,weatherlink.com 1.10,2013-04-07 04:37:00,
2013-04-07 00:53:00,60.8,59.0,30.15,SW,228,0.0,-999.0,94,-99.99,,,0.00,weatherlink.com 1.10,2013-04-07 04:53:00,
2013-04-07 01:08:00,61.1,59.0,30.14,SW,227,0.0,-999.0,94,-99.99,,,0.00,weatherlink.com 1.10,2013-04-07 05:08:00,
2013-04-07 01:23:00,61.3,60.0,30.13,WNW,292,0.0,-999.0,94,-99.99,,,0.00,weatherlink.com 1.10,2013-04-07 05:23:00,
2013-04-07 01:38:00,61.1,59.0,30.13,WNW,292,0.0,-999.0,94,-99.99,,,0.00,weatherlink.com 1.10,2013-04-07 05:38:00,
2013-04-07 01:53:00,60.7,59.0,30.13,WNW,291,0.0,-999.0,94,-99.99,,,0.00,weatherlink.com 1.10,2013-04-07 05:53:00,
2013-04-07 03:30:00,58.9,57.8,30.10,WNW,296,0.0,0.0,96,0.00,,,0.00,Wunderground v.1.15,2013-04-07 07:30:00,
2013-04-07 03:35:00,58.9,57.8,30.10,WNW,296,0.0,0.0,96,0.00,,,0.00,Wunderground v.1.15,2013-04-07 07:35:00,
2013-04-07 03:45:00,59.1,58.0,30.10,WNW,295,0.0,0.0,96,0.00,,,0.00,Wunderground v.1.15,2013-04-07 07:45:00,
2013-04-07 03:50:00,59.2,58.1,30.10,WNW,295,0.0,0.0,96,0.00,,,0.00,Wunderground v.1.15,2013-04-07 07:50:00,
2013-04-07 03:55:00,59.2,58.1,30.10,WNW,296,0.0,0.0,96,0.00,,,0.00,Wunderground v.1.15,2013-04-07 07:55:00,
2013-04-07 04:00:00,59.1,58.0,30.09,WNW,296,0.0,0.0,96,0.00,,,0.00,Wunderground v.1.15,2013-04-07 08:00:00,
2013-04-07 04:05:00,59.0,57.9,30.09,WNW,297,0.0,0.0,96,0.00,,,0.00,Wunderground v.1.15,2013-04-07 08:05:00,
2013-04-07 04:15:00,59.0,57.9,30.10,WNW,295,0.0,0.0,96,0.00,,,0.00,Wunderground v.1.15,2013-04-07 08:15:00,
2013-04-07 04:25:00,58.8,57.7,30.10,WNW,295,0.0,0.0,96,0.00,,,0.00,Wunderground v.1.15,2013-04-07 08:25:00,
2013-04-07 04:30:00,58.7,57.6,30.10,WNW,295,0.0,0.0,96,0.00,,,0.00,Wunderground v.1.15,2013-04-07 08:30:00,
2013-04-07 04:35:00,58.5,57.4,30.10,WNW,295,0.0,0.0,96,0.00,,,0.00,Wunderground v.1.15,2013-04-07 08:35:00,
2013-04-07 04:40:00,58.5,57.7,30.10,WNW,295,0.0,0.0,97,0.00,,,0.00,Wunderground v.1.15,2013-04-07 08:40:00,
2013-04-07 04:50:00,58.5,57.7,30.10,WNW,295,0.0,0.0,97,0.00,,,0.00,Wunderground v.1.15,2013-04-07 08:50:00,
2013-04-07 04:55:00,58.4,57.6,30.11,WNW,295,0.0,0.0,97,0.00,,,0.00,Wunderground v.1.15,2013-04-07 08:55:00,
2013-04-07 05:05:00,58.4,57.6,30.11,WNW,295,0.0,0.0,97,0.00,,,0.00,Wunderground v.1.15,2013-04-07 09:05:00,
2013-04-07 05:10:00,58.3,57.5,30.11,WNW,295,0.0,0.0,97,0.00,,,0.00,Wunderground v.1.15,2013-04-07 09:10:00,
2013-04-07 05:15:00,58.4,57.6,30.11,WNW,297,0.0,0.0,97,0.00,,,0.00,Wunderground v.1.15,2013-04-07 09:15:00,
2013-04-07 05:20:00,58.5,57.7,30.11,WNW,295,0.0,0.0,97,0.00,,,0.00,Wunderground v.1.15,2013-04-07 09:20:00,
2013-04-07 05:25:00,58.5,57.7,30.11,WNW,285,0.0,0.0,97,0.00,,,0.00,Wunderground v.1.15,2013-04-07 09:25:00,
2013-04-07 05:35:00,58.5,57.7,30.12,WNW,285,0.0,0.0,97,0.00,,,0.00,Wunderground v.1.15,2013-04-07 09:35:00,
2013-04-07 05:40:00,58.6,57.8,30.12,WNW,285,0.0,0.0,97,0.00,,,0.00,Wunderground v.1.15,2013-04-07 09:40:00,
2013-04-07 05:45:00,58.6,57.8,30.12,WNW,285,0.0,0.0,97,0.00,,,0.00,Wunderground v.1.15,2013-04-07 09:45:00,
2013-04-07 05:50:00,58.6,57.8,30.12,WNW,285,0.0,0.0,97,0.00,,,0.00,Wunderground v.1.15,2013-04-07 09:50:00,
2013-04-07 06:00:00,58.8,58.0,30.12,WNW,285,0.0,0.0,97,0.00,,,0.00,Wunderground v.1.15,2013-04-07 10:00:00,
2013-04-07 06:05:00,58.9,58.1,30.12,WNW,285,0.0,0.0,97,0.00,,,0.00,Wunderground v.1.15,2013-04-07 10:05:00,
2013-04-07 06:10:00,58.9,58.1,30.12,WNW,285,0.0,0.0,97,0.00,,,0.00,Wunderground v.1.15,2013-04-07 10:10:00,
2013-04-07 06:20:00,58.8,58.0,30.13,WNW,285,0.0,0.0,97,0.00,,,0.00,Wunderground v.1.15,2013-04-07 10:20:00,
2013-04-07 06:25:00,58.8,58.0,30.13,WNW,285,0.0,0.0,97,0.00,,,0.00,Wunderground v.1.15,2013-04-07 10:25:00,
2013-04-07 06:35:00,58.8,58.0,30.13,WNW,285,0.0,0.0,97,0.00,,,0.00,Wunderground v.1.15,2013-04-07 10:35:00,
2013-04-07 06:40:00,58.8,58.0,30.14,WNW,285,0.0,0.0,97,0.00,,,0.00,Wunderground v.1.15,2013-04-07 10:40:00,
2013-04-07 06:45:00,58.8,58.0,30.14,WNW,285,0.0,0.0,97,0.00,,,0.00,Wunderground v.1.15,2013-04-07 10:45:00,
2013-04-07 06:50:00,58.9,58.1,30.14,WNW,285,0.0,0.0,97,0.00,,,0.00,Wunderground v.1.15,2013-04-07 10:50:00,
2013-04-07 07:00:00,59.1,58.2,30.14,WNW,285,0.0,0.0,97,0.00,,,0.00,Wunderground v.1.15,2013-04-07 11:00:00,
2013-04-07 07:05:00,59.2,58.3,30.14,WNW,285,0.0,0.0,97,0.00,,,0.00,Wunderground v.1.15,2013-04-07 11:05:00,
2013-04-07 07:15:00,59.3,58.4,30.14,WNW,285,0.0,0.0,97,0.00,,,0.00,Wunderground v.1.15,2013-04-07 11:15:00,
2013-04-07 07:20:00,59.5,58.6,30.14,WNW,285,0.0,0.0,97,0.00,,,0.00,Wunderground v.1.15,2013-04-07 11:20:00,
2013-04-07 07:25:00,59.5,58.6,30.15,WNW,285,0.0,0.0,97,0.00,,,0.00,Wunderground v.1.15,2013-04-07 11:25:00,
2013-04-07 07:35:00,59.4,58.5,30.15,WNW,285,0.0,0.0,97,0.00,,,0.00,Wunderground v.1.15,2013-04-07 11:35:00,
2013-04-07 07:40:00,59.3,58.4,30.15,WNW,285,0.0,0.0,97,0.00,,,0.00,Wunderground v.1.15,2013-04-07 11:40:00,
2013-04-07 07:50:00,59.3,58.4,30.16,WNW,285,0.0,0.0,97,0.00,,,0.00,Wunderground v.1.15,2013-04-07 11:50:00,
2013-04-07 07:55:00,59.4,58.5,30.16,WNW,285,0.0,0.0,97,0.00,,,0.00,Wunderground v.1.15,2013-04-07 11:55:00,
2013-04-07 08:09:00,59.5,59.0,30.16,West,281,0.0,-999.0,97,-99.99,,,0.00,weatherlink.com 1.10,2013-04-07 12:09:00,
2013-04-07 08:24:00,60.1,59.0,30.16,West,281,0.0,-999.0,97,-99.99,,,0.00,weatherlink.com 1.10,2013-04-07 12:24:00,
2013-04-07 08:39:00,61.1,60.0,30.16,West,281,0.0,-999.0,97,-99.99,,,0.00,weatherlink.com 1.10,2013-04-07 12:39:00,
2013-04-07 08:54:00,62.7,62.0,30.17,West,281,0.0,-999.0,97,-99.99,,,0.00,weatherlink.com 1.10,2013-04-07 12:54:00,
2013-04-07 09:09:00,64.6,64.0,30.17,West,281,0.0,-999.0,96,-99.99,,,0.00,weatherlink.com 1.10,2013-04-07 13:09:00,
2013-04-07 09:24:00,66.7,64.0,30.17,ENE,74,0.0,-999.0,92,-99.99,,,0.00,weatherlink.com 1.10,2013-04-07 13:24:00,
2013-04-07 09:54:00,70.2,63.0,30.18,NE,53,2.0,-999.0,77,-99.99,,,0.00,weatherlink.com 1.10,2013-04-07 13:54:00,
2013-04-07 10:09:00,70.8,62.0,30.18,NNW,334,1.0,-999.0,73,-99.99,,,0.00,weatherlink.com 1.10,2013-04-07 14:09:00,
2013-04-07 10:24:00,71.6,62.0,30.19,NE,53,1.0,-999.0,71,-99.99,,,0.00,weatherlink.com 1.10,2013-04-07 14:24:00,
2013-04-07 10:54:00,72.8,62.0,30.20,NW,309,0.0,-999.0,68,-99.99,,,0.00,weatherlink.com 1.10,2013-04-07 14:54:00,
2013-04-07 11:09:00,72.9,61.0,30.20,NE,36,0.0,-999.0,67,-99.99,,,0.00,weatherlink.com 1.10,2013-04-07 15:09:00,
2013-04-07 11:25:00,73.1,61.0,30.20,East,92,3.0,-999.0,66,-99.99,,,0.00,weatherlink.com 1.10,2013-04-07 15:25:00,
2013-04-07 11:39:00,73.8,63.0,30.20,NNW,331,1.0,-999.0,69,-99.99,,,0.00,weatherlink.com 1.10,2013-04-07 15:39:00,
2013-04-07 11:54:00,74.6,62.0,30.20,WNW,287,1.0,-999.0,65,-99.99,,,0.00,weatherlink.com 1.10,2013-04-07 15:54:00,
2013-04-07 12:09:00,75.1,61.0,30.20,ESE,103,4.0,-999.0,61,-99.99,,,0.00,weatherlink.com 1.10,2013-04-07 16:09:00,
2013-04-07 12:24:00,74.5,61.0,30.20,WSW,242,0.0,-999.0,63,-99.99,,,0.00,weatherlink.com 1.10,2013-04-07 16:24:00,
2013-04-07 12:40:00,74.4,61.0,30.20,ENE,67,0.0,-999.0,64,-99.99,,,0.00,weatherlink.com 1.10,2013-04-07 16:40:00,
2013-04-07 12:54:00,74.6,62.0,30.20,West,265,0.0,-999.0,64,-99.99,,,0.00,weatherlink.com 1.10,2013-04-07 16:54:00,
2013-04-07 13:25:00,74.4,62.0,30.19,NNE,28,2.0,-999.0,66,-99.99,,,0.00,weatherlink.com 1.10,2013-04-07 17:25:00,
2013-04-07 13:40:00,74.8,62.0,30.18,East,84,5.0,-999.0,64,-99.99,,,0.00,weatherlink.com 1.10,2013-04-07 17:40:00,
2013-04-07 13:55:00,74.2,62.0,30.18,ENE,74,3.0,-999.0,65,-99.99,,,0.00,weatherlink.com 1.10,2013-04-07 17:55:00,
2013-04-07 14:10:00,74.4,61.0,30.17,West,264,1.0,-999.0,64,-99.99,,,0.00,weatherlink.com 1.10,2013-04-07 18:10:00,
2013-04-07 14:25:00,74.4,60.0,30.16,SW,217,0.0,-999.0,62,-99.99,,,0.00,weatherlink.com 1.10,2013-04-07 18:25:00,
2013-04-07 14:40:00,74.5,60.0,30.16,NNE,25,1.0,-999.0,61,-99.99,,,0.00,weatherlink.com 1.10,2013-04-07 18:40:00,
2013-04-07 14:55:00,74.2,60.0,30.16,ENE,61,4.0,-999.0,61,-99.99,,,0.00,weatherlink.com 1.10,2013-04-07 18:55:00,
2013-04-07 15:10:00,73.4,60.0,30.15,NE,55,2.0,-999.0,64,-99.99,,,0.00,weatherlink.com 1.10,2013-04-07 19:10:00,
2013-04-07 15:25:00,73.4,59.0,30.15,North,11,0.0,-999.0,62,-99.99,,,0.00,weatherlink.com 1.10,2013-04-07 19:25:00,
2013-04-07 15:55:00,73.4,60.0,30.14,NE,41,4.0,-999.0,64,-99.99,,,0.00,weatherlink.com 1.10,2013-04-07 19:55:00,
2013-04-07 16:10:00,72.7,59.0,30.14,NW,314,0.0,-999.0,63,-99.99,,,0.00,weatherlink.com 1.10,2013-04-07 20:10:00,
2013-04-07 16:25:00,72.8,61.0,30.13,East,92,1.0,-999.0,67,-99.99,,,0.00,weatherlink.com 1.10,2013-04-07 20:25:00,
2013-04-07 16:40:00,72.6,59.0,30.13,NW,325,0.0,-999.0,63,-99.99,,,0.00,weatherlink.com 1.10,2013-04-07 20:40:00,
2013-04-07 17:10:00,72.3,58.0,30.12,WSW,241,0.0,-999.0,62,-99.99,,,0.00,weatherlink.com 1.10,2013-04-07 21:10:00,
2013-04-07 17:25:00,71.8,58.0,30.12,NNW,340,1.0,-999.0,63,-99.99,,,0.00,weatherlink.com 1.10,2013-04-07 21:25:00,
2013-04-07 17:40:00,71.6,59.0,30.12,SE,145,0.0,-999.0,64,-99.99,,,0.00,weatherlink.com 1.10,2013-04-07 21:40:00,
2013-04-07 17:55:00,71.4,58.0,30.12,NE,46,1.0,-999.0,63,-99.99,,,0.00,weatherlink.com 1.10,2013-04-07 21:55:00,
2013-04-07 18:10:00,71.4,59.0,30.12,NE,54,2.0,-999.0,64,-99.99,,,0.00,weatherlink.com 1.10,2013-04-07 22:10:00,
2013-04-07 18:25:00,70.8,59.0,30.12,ENE,58,0.0,-999.0,66,-99.99,,,0.00,weatherlink.com 1.10,2013-04-07 22:25:00,
2013-04-07 18:40:00,70.2,58.0,30.12,NW,315,0.0,-999.0,66,-99.99,,,0.00,weatherlink.com 1.10,2013-04-07 22:40:00,
2013-04-07 18:55:00,69.8,60.0,30.12,NNE,17,0.0,-999.0,70,-99.99,,,0.00,weatherlink.com 1.10,2013-04-07 22:55:00,
2013-04-07 19:10:00,69.1,59.0,30.12,NW,318,0.0,-999.0,71,-99.99,,,0.00,weatherlink.com 1.10,2013-04-07 23:10:00,
2013-04-07 19:25:00,68.2,60.0,30.12,NW,311,0.0,-999.0,74,-99.99,,,0.00,weatherlink.com 1.10,2013-04-07 23:25:00,
2013-04-07 19:40:00,67.5,60.0,30.12,East,86,0.0,-999.0,77,-99.99,,,0.00,weatherlink.com 1.10,2013-04-07 23:40:00,
2013-04-07 19:55:00,66.4,60.0,30.12,East,86,0.0,-999.0,80,-99.99,,,0.00,weatherlink.com 1.10,2013-04-07 23:55:00,
2013-04-07 20:10:00,65.3,60.0,30.12,East,86,0.0,-999.0,82,-99.99,,,0.00,weatherlink.com 1.10,2013-04-08 00:10:00,
2013-04-07 20:25:00,64.3,60.0,30.12,East,86,0.0,-999.0,85,-99.99,,,0.00,weatherlink.com 1.10,2013-04-08 00:25:00,
2013-04-07 20:40:00,63.8,60.0,30.12,East,86,0.0,-999.0,88,-99.99,,,0.00,weatherlink.com 1.10,2013-04-08 00:40:00,
2013-04-07 20:55:00,63.5,60.0,30.12,East,86,0.0,-999.0,89,-99.99,,,0.00,weatherlink.com 1.10,2013-04-08 00:55:00,
2013-04-07 21:09:00,63.1,60.0,30.12,East,86,0.0,-999.0,89,-99.99,,,0.00,weatherlink.com 1.10,2013-04-08 01:09:00,
2013-04-07 21:24:00,62.9,60.0,30.13,East,86,0.0,-999.0,90,-99.99,,,0.00,weatherlink.com 1.10,2013-04-08 01:24:00,
2013-04-07 21:39:00,62.8,60.0,30.13,East,86,0.0,-999.0,91,-99.99,,,0.00,weatherlink.com 1.10,2013-04-08 01:39:00,
2013-04-07 21:54:00,62.9,60.0,30.13,NNE,19,0.0,-999.0,91,-99.99,,,0.00,weatherlink.com 1.10,2013-04-08 01:54:00,
2013-04-07 22:09:00,62.6,60.0,30.13,NNE,19,0.0,-999.0,91,-99.99,,,0.00,weatherlink.com 1.10,2013-04-08 02:09:00,
2013-04-07 22:24:00,62.3,60.0,30.13,NNE,20,0.0,-999.0,92,-99.99,,,0.00,weatherlink.com 1.10,2013-04-08 02:24:00,
2013-04-07 22:39:00,62.1,60.0,30.14,NNE,20,0.0,-999.0,93,-99.99,,,0.00,weatherlink.com 1.10,2013-04-08 02:39:00,
2013-04-07 22:54:00,62.4,60.0,30.14,NNE,19,0.0,-999.0,93,-99.99,,,0.00,weatherlink.com 1.10,2013-04-08 02:54:00,
2013-04-07 23:09:00,62.5,61.0,30.14,NNE,20,0.0,-999.0,93,-99.99,,,0.00,weatherlink.com 1.10,2013-04-08 03:09:00,
2013-04-07 23:24:00,62.2,60.0,30.14,SE,131,0.0,-999.0,92,-99.99,,,0.00,weatherlink.com 1.10,2013-04-08 03:24:00,
2013-04-07 23:39:00,61.9,60.0,30.14,SE,131,0.0,-999.0,92,-99.99,,,0.00,weatherlink.com 1.10,2013-04-08 03:39:00,
2013-04-07 23:54:00,61.3,59.0,30.14,SE,130,0.0,-999.0,92,-99.99,,,0.00,weatherlink.com 1.10,2013-04-08 03:54:00,